{"data":{"norad_id":45016,"epoch":"2026-05-25T04:02:29.142240Z","epoch_age_seconds":70556,"freshness":"FRESH","line1":"1 45016U 20003A   26145.16839285  .00002701  00000+0  16732-3 0  9992","line2":"2 45016  97.5030 219.5745 0010331  30.5759 329.6071 15.10571119351853","mean_motion":15.10571119,"eccentricity":0.0010331,"inclination_deg":97.503,"raan_deg":219.5745,"arg_perigee_deg":30.5759,"mean_anomaly_deg":329.6071,"bstar":0.00016732,"rev_number":35185,"period_min":95.328182955946,"perigee_km":527.31570364124,"apogee_km":541.59850558018,"semimajor_km":6912.5941046107,"source":"CELESTRAK","updated_at":"2026-05-25T13:37:56.045154Z"}}